Weather History for Indianapolis, IN

Change the Weather History Date:

Sunday, January 5, 2014

  Actual Average (KEYE) Record (KEYE)
Temperature  
Mean Temperature 30 °F 28 °F  
Max Temperature 36 °F 35 °F 57 °F (1998)
Min Temperature 17 °F 21 °F -9 °F (1999)
Degree Days  
Heating Degree Days 36 37  
Month to date heating degree days 185  
Since 1 July heating degree days 2241  
Cooling Degree Days 0 0  
Month to date cooling degree days 0  
Year to date cooling degree days 0  
Moisture  
Dew Point 27 °F    
Average Humidity 83    
Maximum Humidity 92    
Minimum Humidity 52    
Precipitation  
Precipitation 0.41 in 0.10 in 1.59 in (2005)
Month to date precipitation 0.53  
Year to date precipitation 0.53  
Sea Level Pressure  
Sea Level Pressure 29.82 in    
Wind  
Wind Speed 6 mph (NNE)    
Max Wind Speed 16 mph    
Max Gust Speed 23 mph    
Visibility 4 miles    
Events Rain , Snow    
T = Trace of Precipitation, MM = Missing Value Source: NWS Daily Summary

Daily Weather History Graph

Daily Weather History Graph

Search for Another Location

Airport:

Trip Planner

Search our weather history database for the weather conditions in past years. The results will help you decide how hot, cold, wet, or windy it might be!

Date:

Astronomy

Jan. 05, 2014 Rise Set
Actual Time 8:07 AM EST 5:34 PM EST
Civil Twilight 7:36 AM EST 6:04 PM EST
Nautical Twilight 7:03 AM EST 6:38 PM EST
Astronomical Twilight 6:30 AM EST 7:10 PM EST
Moon 10:48 AM EST (1/5) 11:01 PM EST (1/5)
Length of Visible Light 10h 27m
Length of Day
9h 26m
Waxing Crescent, 24% of the Moon is Illuminated
Jan 5
Waxing Crescent
Jan 7
First Quarter
Jan 15
Full
Jan 24
Last Quarter
Jan 30
New

Hourly Weather History & Observations

Time (EST) Temp. Windchill Dew Point Humidity Pressure Visibility Wind Dir Wind Speed Gust Speed Precip Events Conditions
12:15 AM 36.5 °F 30.3 °F 20.5 °F 52% 30.00 in 10.0 mi SSW 8.1 mph - N/A   Overcast
12:35 AM 35.6 °F 30.7 °F 20.5 °F 54% 30.00 in 10.0 mi SSW 5.8 mph - N/A   Overcast
12:55 AM 35.6 °F 28.6 °F 21.4 °F 56% 30.00 in 10.0 mi SW 9.2 mph - N/A   Overcast
1:15 AM 35.6 °F 29.2 °F 23.0 °F 60% 30.00 in 10.0 mi SW 8.1 mph - N/A   Overcast
1:35 AM 35.6 °F 29.9 °F 23.5 °F 62% 29.99 in 10.0 mi SSW 6.9 mph - N/A   Overcast
1:55 AM 35.6 °F 30.7 °F 23.7 °F 62% 29.99 in 10.0 mi SW 5.8 mph - N/A   Overcast
2:15 AM 34.7 °F 31.8 °F 23.9 °F 65% 29.99 in 10.0 mi SSW 3.5 mph - N/A   Overcast
2:35 AM 35.4 °F 31.5 °F 23.2 °F 61% 29.99 in 10.0 mi SSW 4.6 mph - N/A   Overcast
2:55 AM 35.1 °F 31.0 °F 23.0 °F 61% 30.00 in 10.0 mi SSW 4.6 mph - N/A   Overcast
3:15 AM 35.1 °F 27.9 °F 23.9 °F 64% 29.98 in 10.0 mi SSW 9.2 mph - N/A   Overcast
3:35 AM 34.7 °F 28.8 °F 26.1 °F 71% 29.99 in 10.0 mi SSW 6.9 mph - N/A   Overcast
3:55 AM 34.3 °F 31.4 °F 26.4 °F 73% 29.98 in 10.0 mi West 3.5 mph - N/A   Overcast
4:15 AM 34.0 °F 31.0 °F 26.2 °F 73% 29.98 in 10.0 mi SSW 3.5 mph - N/A   Overcast
4:35 AM 34.2 °F 31.2 °F 26.2 °F 73% 29.97 in 10.0 mi SSW 3.5 mph - N/A   Overcast
4:55 AM 33.8 °F 30.8 °F 27.1 °F 77% 29.96 in 10.0 mi SSW 3.5 mph - N/A   Overcast
5:15 AM 33.8 °F 30.8 °F 28.0 °F 79% 29.95 in 7.0 mi SSW 3.5 mph - N/A   Drizzle
5:35 AM 33.3 °F - 28.4 °F 82% 29.94 in 7.0 mi Calm Calm - N/A Rain Rain
5:55 AM 32.9 °F - 28.9 °F 85% 29.94 in 7.0 mi Calm Calm - N/A Rain Light Rain
6:15 AM 32.9 °F - 28.9 °F 85% 29.93 in 5.0 mi Calm Calm - N/A Snow Light Snow
6:35 AM 32.9 °F - 29.1 °F 86% 29.94 in 7.0 mi Calm Calm - N/A Snow Light Snow
6:55 AM 32.4 °F - 28.9 °F 87% 29.94 in 4.0 mi Calm Calm - N/A Snow Light Snow
7:15 AM 32.4 °F - 29.3 °F 88% 29.94 in 1.5 mi Calm Calm - N/A Snow Light Snow
7:35 AM 32.4 °F - 29.3 °F 88% 29.94 in 1.2 mi Calm Calm - 0.01 in Snow Light Snow
7:55 AM 32.2 °F 28.9 °F 29.3 °F 89% 29.92 in 1.8 mi East 3.5 mph - 0.02 in Snow Light Snow
8:15 AM 32.0 °F 28.7 °F 29.5 °F 90% 29.92 in 1.2 mi East 3.5 mph - 0.01 in Snow Light Snow
8:35 AM 32.0 °F 27.5 °F 29.7 °F 91% 29.91 in 0.8 mi East 4.6 mph - 0.02 in Snow Light Snow
8:55 AM 32.0 °F 28.7 °F 29.5 °F 90% 29.90 in 0.8 mi ESE 3.5 mph - 0.02 in Snow Light Snow
9:15 AM 32.0 °F 28.7 °F 29.8 °F 92% 29.90 in 0.8 mi East 3.5 mph - 0.01 in Snow Light Snow
9:35 AM 32.4 °F 29.1 °F 30.2 °F 92% 29.89 in 0.8 mi East 3.5 mph - 0.02 in Snow Light Snow
9:55 AM 32.7 °F 29.6 °F 30.6 °F 92% 29.88 in 0.8 mi East 3.5 mph - 0.02 in Snow Light Snow
10:15 AM 32.9 °F 29.8 °F 30.7 °F 92% 29.86 in 0.8 mi East 3.5 mph - 0.01 in Snow Light Snow
10:35 AM 32.9 °F 28.5 °F 30.7 °F 92% 29.86 in 1.0 mi East 4.6 mph - 0.02 in Snow Light Snow
10:55 AM 32.9 °F 29.8 °F 30.7 °F 92% 29.85 in 0.5 mi ENE 3.5 mph - 0.02 in Snow Snow
11:15 AM 32.9 °F 28.5 °F 30.6 °F 91% 29.83 in 0.2 mi NE 4.6 mph - N/A Snow Snow
11:35 AM 32.9 °F 28.5 °F 30.6 °F 91% 29.83 in 0.5 mi NNE 4.6 mph - 0.01 in Snow Snow
11:55 AM 32.9 °F 27.5 °F 30.7 °F 92% 29.79 in 0.8 mi NE 5.8 mph - 0.02 in Snow Light Snow
12:15 PM 32.9 °F 26.7 °F 30.6 °F 91% 29.76 in 1.0 mi NE 6.9 mph - 0.01 in Snow Light Snow
12:35 PM 32.5 °F 27.1 °F 30.6 °F 92% 29.74 in 0.8 mi NE 5.8 mph - 0.02 in Snow Light Snow
12:55 PM 32.5 °F 27.1 °F 30.6 °F 92% 29.71 in 0.8 mi NE 5.8 mph - 0.03 in Snow Light Snow
1:15 PM 32.5 °F 28.1 °F 30.6 °F 92% 29.71 in 0.5 mi NNE 4.6 mph - 0.01 in Snow Snow
1:35 PM 32.5 °F 26.2 °F 30.6 °F 92% 29.69 in 0.5 mi NE 6.9 mph - 0.02 in Snow Light Snow
1:55 PM 32.5 °F 27.1 °F 30.6 °F 92% 29.67 in 0.8 mi NE 5.8 mph - 0.03 in Snow Light Snow
2:15 PM 32.5 °F 28.1 °F 30.4 °F 92% 29.66 in 0.5 mi NE 4.6 mph - 0.01 in Snow Light Snow
2:35 PM 32.5 °F 29.3 °F 30.6 °F 92% 29.67 in 0.5 mi NE 3.5 mph - 0.02 in Snow Snow
2:55 PM 32.5 °F 28.1 °F 30.6 °F 92% 29.65 in 1.0 mi NNE 4.6 mph - 0.04 in Snow Light Snow
3:15 PM 32.5 °F 27.1 °F 30.6 °F 92% 29.63 in 1.0 mi NNE 5.8 mph - 0.02 in Snow Light Snow
3:35 PM 32.4 °F 26.9 °F 30.2 °F 92% 29.63 in 0.8 mi North 5.8 mph - 0.04 in Snow Light Snow
3:55 PM 32.0 °F 25.6 °F 30.0 °F 92% 29.63 in 2.5 mi North 6.9 mph - 0.06 in Snow Light Snow
4:15 PM 32.0 °F 24.8 °F 29.8 °F 92% 29.62 in 1.0 mi North 8.1 mph - 0.02 in Snow Light Snow
4:35 PM 31.8 °F 23.3 °F 29.3 °F 90% 29.61 in 0.5 mi North 10.4 mph - 0.04 in Snow Snow
4:55 PM 31.6 °F 23.1 °F 29.1 °F 90% 29.62 in 0.8 mi North 10.4 mph - 0.06 in Snow Light Snow
5:15 PM 30.2 °F 20.2 °F 27.5 °F 90% 29.61 in 0.5 mi North 12.7 mph - 0.01 in Snow Snow
5:35 PM 29.3 °F 18.6 °F 26.6 °F 90% 29.61 in 0.8 mi North 13.8 mph 18.4 mph 0.03 in Snow Snow
5:55 PM 28.0 °F 16.5 °F 25.2 °F 89% 29.62 in 0.8 mi North 15.0 mph - 0.04 in Snow Snow
6:15 PM 27.0 °F 15.6 °F 23.9 °F 88% 29.63 in 1.0 mi NNW 13.8 mph 19.6 mph 0.01 in Snow Snow
6:35 PM 25.9 °F 14.8 °F 23.0 °F 89% 29.64 in 0.8 mi North 12.7 mph - 0.02 in Snow Snow
6:55 PM 25.5 °F 14.9 °F 22.1 °F 87% 29.65 in 0.8 mi NNW 11.5 mph 23.0 mph 0.02 in Snow Snow
7:15 PM 24.8 °F 11.9 °F 21.4 °F 87% 29.65 in 1.8 mi North 16.1 mph 20.7 mph 0.01 in Snow Light Snow
7:35 PM 23.9 °F 10.8 °F 20.3 °F 86% 29.67 in 1.5 mi NNW 16.1 mph - 0.01 in Snow Light Snow
7:55 PM 23.4 °F 11.6 °F 19.6 °F 85% 29.70 in 1.5 mi NW 12.7 mph 18.4 mph 0.02 in Snow Light Snow
8:15 PM 23.0 °F 10.1 °F 19.2 °F 85% 29.70 in 1.2 mi NNW 15.0 mph 20.7 mph N/A Snow Light Snow
8:35 PM 23.0 °F 10.1 °F 19.4 °F 86% 29.71 in 1.8 mi NNW 15.0 mph - N/A Snow Light Snow
8:55 PM 23.9 °F 10.8 °F 19.9 °F 85% 29.72 in 2.0 mi NNW 16.1 mph 21.9 mph 0.01 in Snow Light Snow
9:15 PM 24.3 °F 11.7 °F 20.3 °F 85% 29.74 in 1.8 mi NW 15.0 mph 21.9 mph N/A Snow Light Snow
9:35 PM 17.8 °F 3.4 °F 13.3 °F 83% 29.76 in 1.0 mi NW 15.0 mph 23.0 mph N/A Snow Light Snow